Simultaneous Nadir Overpasses (SNOs) Predictions

Prediction of SNOs between GOES-16 and TERRA Satellite Orbit:

Table of predicted SNOs for the next 14.0 days since TLE Epoch: 9/12/2025
Index Date Time (GOES-16) GOES-16 Lat,Lon TERRA Lat,Lon Distance(km) Time Diff (sec)
1 09/13/2025 04:10:00 -0.06,-104.63 0.07,-104.14 56.47 80
2 09/13/2025 16:32:04 0.07,-104.69 0.92,-108.87 474.51 80
3 09/15/2025 16:10:06 0.07,-104.68 -0.03,-104.21 53.10 80
4 09/16/2025 04:32:19 -0.08,-104.62 -0.98,-108.97 494.14 80
5 09/18/2025 04:10:20 -0.08,-104.62 -0.01,-104.32 33.86 80
6 09/18/2025 16:32:25 0.09,-104.67 1.01,-109.05 497.02 80
7 09/20/2025 16:10:26 0.08,-104.68 0.04,-104.39 31.79 80
8 09/23/2025 04:10:41 -0.08,-104.63 -0.04,-104.51 14.39 80
9 09/25/2025 16:10:47 0.09,-104.69 0.05,-104.58 12.72 80
